RH
58 74 91 90 89 88 88 88 89 87 85 84 84 82 82 82 81 80 78 75 72 63 59 58 56 55 57 59 61 62 63 67 73 72 73 72 71 73 73 76 76 62 77
61 68 91 89 88 87 87 89 87 86 83 80 82 82 81 80 79 77 74 71 67 57 54 55 58 61 62 65 67 68 68 70 74 74 71 72 73 68 71 75 80 71 76
58 66 71 89 87 86 88 87 86 83 80 76 78 80 78 77 76 75 72 69 65 55 54 58 58 58 61 64 67 68 70 76 79 80 73 67 62 67 70 77 78 75 75
57 57 67 91 88 89 89 87 83 80 78 78 77 76 76 72 70 71 73 71 68 58 58 57 57 58 61 64 66 66 71 74 75 76 52 48 55 71 68 71 72 71 72
53 54 75 91 89 88 87 88 86 84 82 79 76 71 67 64 65 68 74 72 67 60 59 61 64 67 71 78 77 76 75 75 74 66 48 57 61 67 70 70 67 68 75
68 73 88 86 86 87 88 89 88 87 84 80 76 73 66 64 68 70 76 73 65 63 63 64 68 71 80 81 80 79 78 76 69 33 45 59 64 68 69 73 78 76 76
93 89 84 90 83 86 89 89 88 88 86 82 78 75 72 66 69 74 78 76 72 67 67 68 71 75 79 80 80 80 80 80 54 37 46 62 70 61 60 67 74 75 74
92 94 92 86 83 89 92 91 90 89 87 84 79 75 73 74 76 76 77 76 76 75 74 73 76 78 79 78 76 76 78 80 48 46 45 63 71 60 57 61 74 76 76
90 95 97 87 81 94 94 92 91 89 88 87 83 81 81 81 79 77 78 77 76 77 77 77 79 80 78 77 74 70 74 74 65 46 43 64 69 62 58 60 66 72 74
98 92 89 80 86 89 85 90 89 88 88 86 81 79 79 77 76 76 79 78 76 76 76 76 78 76 77 75 73 72 71 68 44 46 63 80 71 64 63 62 64 69 74
95 95 83 80 79 83 81 83 86 86 86 82 78 76 78 64 69 70 78 76 77 77 75 70 70 71 76 77 70 74 71 42 41 46 66 78 69 66 69 71 72 74 74
94 93 81 79 79 77 58 74 74 68 67 65 60 69 67 67 61 55 68 73 72 68 67 69 69 72 74 50 53 62 48 48 43 50 77 76 66 64 68 69 72 73 74
76 76 78 80 73 58 61 64 55 59 67 72 69 66 69 65 69 67 75 65 76 73 60 66 60 53 51 55 53 56 52 46 49 48 74 75 62 57 60 62 64 65 66
68 73 75 75 72 65 54 56 59 59 69 68 71 68 77 83 77 78 78 72 67 59 59 60 61 57 57 49 50 50 48 51 49 47 79 74 68 54 54 55 57 58 60
65 75 73 71 67 62 66 69 73 80 89 91 88 83 85 84 85 82 81 75 72 65 66 65 60 56 54 50 50 47 45 46 47 49 66 73 71 56 51 53 55 57 58
56 62 63 59 66 60 68 79 83 78 82 86 87 90 90 90 90 77 80 80 74 67 63 63 61 58 56 50 47 49 48 45 45 49 46 70 71 65 56 56 54 53 52
47 51 57 64 61 69 75 74 75 76 76 85 87 86 88 90 84 80 79 76 73 67 62 61 58 55 54 46 48 47 46 43 43 45 48 43 71 74 65 54 47 45 47
41 49 55 50 68 75 76 82 92 95 84 88 89 88 83 79 72 74 71 73 72 70 62 61 62 61 60 59 59 54 52 46 39 39 43 45 57 54 66 58 48 43 45
43 49 57 65 72 78 82 90 92 83 77 77 75 72 68 62 60 66 70 72 67 65 64 63 68 69 67 63 49 45 55 50 47 32 38 41 47 48 46 60 60 55 44
46 56 63 72 81 76 86 90 75 73 72 68 63 58 56 56 57 62 68 64 62 65 67 71 71 68 70 62 36 37 55 56 47 47 41 39 45 44 47 41 48 50 56
51 65 69 84 89 77 86 82 69 73 64 62 51 55 54 53 51 56 64 64 64 66 69 64 65 66 67 63 60 57 56 50 51 43 47 46 46 33 43 48 48 50 46
54 69 77 80 84 73 71 66 60 57 59 52 56 56 53 54 52 51 61 62 65 65 64 66 67 70 67 66 68 61 64 55 49 46 51 45 47 46 43 38 44 44 50
69 72 70 70 70 66 62 51 52 51 57 53 56 56 55 53 51 53 56 60 63 63 65 68 66 67 71 66 62 69 70 70 60 56 48 48 49 53 53 46 38 40 41
72 74 65 63 58 52 53 54 56 51 54 58 59 59 54 52 50 43 45 54 61 66 68 69 53 70 68 70 65 52 64 66 64 58 50 46 45 37 46 54 46 42 41
63 65 60 54 49 48 49 55 57 59 60 58 58 51 46 48 42 39 44 56 59 62 66 69 71 68 68 70 72 68 63 63 58 61 54 52 45 45 43 48 54 51 42
54 58 59 47 43 48 53 59 62 61 55 51 50 50 44 44 44 47 46 56 59 62 64 69 68 66 70 79 77 66 63 62 57 62 62 57 54 50 48 49 52 53 54
Wind_Speed
17 18 17 17 16 15 15 16 16 17 17 17 17 17 16 16 15 16 16 16 16 17 16 17 16 15 15 14 13 11 10 9 6 4 5 9 11 13 14 14 14 12 13
18 18 18 17 16 17 16 17 17 17 17 18 17 16 15 16 15 16 16 15 15 16 16 16 15 15 14 13 12 11 10 10 10 8 3 9 12 13 15 12 11 10 11
17 18 19 17 16 16 17 16 18 18 18 17 17 16 15 15 15 15 15 15 14 15 15 15 15 14 13 12 12 11 12 12 12 13 3 3 8 15 16 10 10 12 10
17 16 18 16 16 16 16 16 17 18 18 16 16 16 15 15 15 15 14 13 13 14 15 15 15 15 14 12 11 11 12 14 14 10 2 6 12 17 16 14 12 13 11
18 16 16 15 16 17 17 16 17 17 16 17 15 15 15 15 15 15 13 13 13 15 15 14 14 14 13 11 12 13 14 13 15 9 13 10 9 12 13 14 13 14 13
12 14 13 14 14 15 17 16 17 17 16 16 16 14 14 15 14 13 13 14 14 15 14 13 13 13 12 12 12 14 15 17 17 10 11 12 8 11 10 11 10 12 12
13 13 9 7 13 15 17 16 16 16 16 16 15 14 14 13 12 12 12 13 13 13 13 12 12 10 8 9 10 11 14 15 12 8 9 8 6 10 10 10 9 10 11
15 15 8 7 11 15 17 15 14 15 15 15 14 14 12 11 10 10 11 11 11 9 9 8 7 6 5 5 7 8 12 14 12 8 10 6 9 11 10 10 9 8 8
10 11 10 11 13 17 15 14 12 13 14 14 12 12 11 9 9 8 8 9 8 7 6 5 5 5 6 7 10 10 5 10 8 6 11 5 10 11 10 10 10 9 8
6 12 16 11 12 12 11 12 13 13 13 12 10 10 10 10 9 8 8 7 5 4 4 4 4 7 6 6 10 11 10 8 6 8 8 4 11 13 10 9 10 10 10
2 7 11 10 11 12 11 10 10 12 13 11 8 8 7 4 6 7 7 7 2 1 3 4 4 7 9 10 9 9 9 5 8 6 4 7 14 14 12 12 12 12 13
13 11 10 9 10 11 10 9 8 9 7 7 6 7 5 3 4 6 6 9 9 8 7 6 7 7 6 4 2 4 4 6 5 5 3 9 14 13 13 13 14 15 16
18 8 7 6 5 10 7 7 5 4 4 4 6 1 4 2 4 3 4 4 5 8 3 5 4 2 4 3 2 3 5 5 4 4 5 8 10 10 10 11 12 13 15
13 11 8 6 2 7 5 4 5 4 4 3 4 4 1 1 3 4 4 5 4 4 3 2 3 6 7 6 5 4 3 4 3 3 4 6 7 7 7 8 9 11 13
17 12 10 8 6 6 6 6 8 8 6 5 5 5 5 4 5 4 4 4 4 5 5 5 4 5 5 5 5 4 5 4 5 3 3 7 5 4 5 7 9 10 12
17 13 12 9 7 5 7 10 7 6 4 4 4 4 4 3 3 3 2 3 4 5 5 4 4 4 4 5 6 6 6 6 6 5 3 4 9 5 7 9 11 12 12
16 16 12 11 10 9 12 8 6 6 4 4 3 4 1 3 3 5 4 3 5 5 5 5 5 5 5 5 7 6 6 6 6 7 4 4 5 11 9 9 8 10 10
16 15 12 10 10 12 9 5 3 3 5 4 4 3 1 3 3 1 2 4 5 4 3 3 3 4 5 5 4 5 4 6 8 9 5 5 3 6 7 10 8 11 7
17 16 12 10 12 11 8 4 2 3 4 4 5 4 4 4 2 2 5 5 5 4 3 4 5 4 4 5 7 5 4 5 6 8 7 6 6 2 3 7 9 9 5
15 15 14 9 9 10 6 4 4 3 3 4 4 5 5 5 5 5 5 4 1 3 4 4 3 3 3 4 7 7 3 3 6 7 10 4 5 6 4 4 3 4 11
14 15 13 12 7 8 5 5 4 4 4 3 6 7 5 5 5 4 5 5 4 4 4 4 3 4 3 4 4 5 4 5 5 6 5 5 6 7 5 5 4 3 4
11 15 11 12 10 9 8 6 6 6 4 6 5 4 6 5 5 4 3 3 5 4 5 4 4 3 2 4 2 5 5 4 5 5 4 5 6 6 6 7 5 4 3
12 13 11 12 12 12 8 7 6 7 4 5 6 5 5 5 4 3 3 3 3 3 3 3 3 5 2 4 5 2 4 4 6 4 6 6 7 4 5 4 5 3 2
10 9 12 12 13 6 7 6 7 4 5 4 5 4 4 4 1 2 3 3 2 1 3 4 3 1 1 3 4 4 4 4 4 8 3 4 5 6 6 4 4 4 4
11 12 12 9 9 6 6 7 5 8 5 4 5 5 4 6 6 6 6 6 6 4 4 4 5 2 0 2 2 3 3 3 4 3 6 4 4 5 5 4 4 4 5
8 8 8 9 8 7 7 9 9 9 7 7 6 5 4 3 3 5 6 5 5 5 6 4 3 3 4 4 4 5 2 2 3 2 4 5 6 4 3 5 5 4 4
Wind_Direction
128 132 128 122 122 117 113 108 104 100 94 91 87 85 85 84 82 79 77 75 76 74 70 66 60 57 53 47 42 35 19 359 354 43 73 83 75 66 49 29 13 41 34
126 133 124 121 123 121 115 109 103 98 94 94 92 88 86 83 80 77 75 71 69 68 67 68 66 60 53 43 34 22 2 343 335 350 36 67 60 65 58 42 34 41 36
136 130 125 122 123 117 111 108 104 101 100 96 94 91 87 85 81 77 74 72 74 74 72 66 61 58 52 41 27 8 353 342 341 329 260 133 78 54 50 56 45 37 54
129 139 130 122 122 113 112 108 105 105 102 97 94 92 89 83 77 71 69 73 75 77 77 70 63 57 51 40 25 6 353 338 330 326 323 74 68 45 41 29 44 37 27
131 123 123 125 125 123 114 111 104 101 102 99 95 93 89 84 76 73 73 76 80 79 73 65 59 52 42 32 16 359 347 339 329 298 69 52 35 46 41 38 31 32 27
93 105 119 131 122 120 109 101 101 99 97 95 91 90 85 77 72 71 70 72 76 73 68 61 53 42 26 20 10 357 345 346 348 56 79 64 56 36 44 39 31 27 28
99 85 88 107 123 114 105 101 98 97 96 95 94 91 84 82 82 74 70 70 67 66 64 54 45 41 28 14 356 351 340 342 344 76 80 82 58 41 29 31 34 31 23
119 125 123 152 128 111 103 99 98 99 95 91 94 89 90 87 85 80 76 71 67 64 58 52 44 20 8 1 337 349 340 338 340 334 89 66 51 50 30 22 24 25 25
129 108 128 188 127 98 98 98 96 94 93 93 98 100 99 98 95 94 86 74 61 50 45 31 22 339 334 344 322 323 347 320 311 47 74 54 40 39 23 12 8 11 11
85 148 176 140 118 114 107 110 110 104 100 107 112 122 133 135 141 136 123 87 64 35 13 6 339 308 301 289 289 305 336 318 326 78 66 54 50 35 12 3 0 1 6
107 206 162 138 130 118 117 119 110 118 121 126 130 155 151 183 171 153 120 122 139 246 263 257 262 283 303 273 255 295 328 357 337 75 76 57 58 46 29 18 14 15 11
188 222 156 139 138 149 134 155 154 144 157 162 157 184 192 101 110 130 163 172 190 209 218 248 261 268 289 2 5 304 16 348 334 80 65 62 66 60 47 35 32 31 28
168 118 99 103 118 126 140 163 158 163 137 113 143 148 91 130 176 192 177 199 192 222 204 204 232 235 1 17 340 21 359 351 353 42 66 60 74 73 64 48 36 31 29
124 114 110 118 187 132 150 144 126 120 106 116 112 64 104 98 73 40 29 9 350 79 358 34 3 17 13 350 25 3 14 12 340 354 104 85 80 80 79 65 43 30 24
129 132 142 176 128 110 96 87 70 68 57 50 30 39 19 44 44 41 15 349 349 21 45 0 28 6 335 336 342 1 360 346 333 308 121 138 112 100 86 77 62 39 22
129 143 157 147 122 150 100 89 86 72 93 105 79 28 18 31 39 5 24 3 347 43 30 348 350 354 344 349 349 5 352 339 319 325 333 154 161 129 85 67 49 32 17
139 150 155 136 160 119 106 108 100 127 155 110 127 127 327 45 321 55 36 348 37 25 11 6 358 359 11 345 346 350 330 335 341 329 329 321 166 140 133 104 71 30 25
132 140 142 149 121 119 111 106 119 218 108 108 107 87 174 120 87 103 205 58 28 334 31 24 338 4 347 341 329 317 310 3 340 314 322 342 18 158 155 141 87 26 53
140 143 138 143 129 109 105 91 244 131 124 150 113 162 126 107 88 26 62 61 1 324 12 22 13 356 339 330 317 315 19 338 325 332 325 324 300 237 104 182 49 17 59
136 136 137 126 136 133 140 203 170 159 133 145 158 114 138 84 50 16 105 100 292 351 14 20 338 319 305 324 323 312 319 340 321 309 294 277 6 16 19 44 359 359 7
132 129 129 129 113 142 167 203 149 163 166 132 80 77 64 94 89 53 26 21 20 26 10 343 325 328 337 316 326 325 334 333 333 301 2 343 345 334 329 28 38 31 2
131 129 133 133 160 187 196 181 168 168 146 107 101 100 101 67 78 73 69 360 29 0 339 336 346 314 316 339 333 319 310 322 273 344 328 344 345 350 1 355 2 20 31
116 137 148 153 188 204 191 150 105 96 103 123 145 151 110 86 38 23 32 43 359 339 322 319 308 301 337 347 302 298 325 307 331 332 344 332 336 339 329 343 331 10 352
127 153 161 170 190 126 131 128 142 157 130 95 102 93 116 134 137 330 348 357 328 289 299 291 309 20 339 284 333 327 332 324 327 321 294 328 331 337 324 334 337 347 345
167 183 175 152 113 122 82 96 105 103 122 95 75 69 38 38 29 16 22 22 357 342 308 302 287 259 295 306 308 315 302 301 297 303 311 328 337 329 322 308 343 339 310
134 117 111 122 128 113 92 72 77 81 77 85 60 44 40 355 18 25 27 4 329 313 306 286 297 31 18 360 325 287 276 296 299 330 325 317 304 298 311 325 336 324 335